When you browse on this site, cookies collect data to enhance your experience and personalize the content and advertising you see.
Visit our Privacy Policy to learn more. By continuing to use the site, you agree to this use of cookies and data.
  • In Österreich
  • Länderverzeichnis
  • Für 7 Tage
  • Wassertemperatur
  • Wetterkarte
  • News
  • Widgets
  • user-avatar
    Anmelden

    Stündliche Wetter Malkovo

    Heute, 29 Mai, Freitag

    Zeit Temperatur Niederschläge Wind Luftdruck Luftfeuchtigkeit
    00:00 +12°C° 0 mm 2 m/S 749 mmHg 78%
    01:00 +12°C° 0 mm 2 m/S 749 mmHg 81%
    02:00 +11°C° 0 mm 3 m/S 748 mmHg 85%
    03:00 +11°C° 0.2 mm 3 m/S 748 mmHg 88%
    04:00 +10°C° 0.2 mm 3 m/S 747 mmHg 91%
    05:00 +10°C° 0.2 mm 2 m/S 747 mmHg 94%
    06:00 +11°C° 0.2 mm 3 m/S 747 mmHg 93%
    07:00 +11°C° 0.2 mm 3 m/S 747 mmHg 93%
    08:00 +11°C° 0.2 mm 3 m/S 747 mmHg 93%
    09:00 +12°C° 0.3 mm 3 m/S 747 mmHg 93%
    10:00 +12°C° 0.3 mm 4 m/S 747 mmHg 94%
    11:00 +12°C° 0.3 mm 4 m/S 746 mmHg 94%
    12:00 +12°C° 0.3 mm 4 m/S 746 mmHg 93%
    13:00 +12°C° 0.3 mm 4 m/S 746 mmHg 93%
    14:00 +12°C° 0.3 mm 4 m/S 746 mmHg 93%
    15:00 +12°C° 0 mm 4 m/S 746 mmHg 90%
    16:00 +13°C° 0 mm 4 m/S 746 mmHg 88%
    17:00 +13°C° 0 mm 4 m/S 746 mmHg 86%
    18:00 +13°C° 0 mm 4 m/S 745 mmHg 86%
    19:00 +13°C° 0 mm 4 m/S 745 mmHg 86%
    20:00 +13°C° 0 mm 4 m/S 745 mmHg 86%
    21:00 +12°C° 0 mm 4 m/S 745 mmHg 87%
    22:00 +12°C° 0 mm 4 m/S 745 mmHg 88%
    23:00 +12°C° 0 mm 4 m/S 745 mmHg 88%

    Morgen, 30 Mai, Samstag

    Zeit Temperatur Niederschläge Wind Luftdruck Luftfeuchtigkeit
    00:00 +11°C° 0 mm 4 m/S 745 mmHg 89%
    01:00 +10°C° 0 mm 5 m/S 745 mmHg 89%
    02:00 +10°C° 0 mm 5 m/S 744 mmHg 89%
    03:00 +10°C° 0 mm 5 m/S 744 mmHg 89%
    04:00 +12°C° 0 mm 5 m/S 744 mmHg 88%
    05:00 +12°C° 0 mm 5 m/S 744 mmHg 88%
    06:00 +12°C° 0.4 mm 5 m/S 744 mmHg 89%
    07:00 +12°C° 0.4 mm 5 m/S 743 mmHg 90%
    08:00 +11°C° 0.4 mm 6 m/S 743 mmHg 90%
    09:00 +11°C° 1.7 mm 6 m/S 743 mmHg 92%
    10:00 +11°C° 1.7 mm 6 m/S 743 mmHg 94%
    11:00 +11°C° 1.7 mm 7 m/S 743 mmHg 96%
    12:00 +11°C° 1.3 mm 7 m/S 743 mmHg 95%
    13:00 +11°C° 1.3 mm 7 m/S 743 mmHg 95%
    14:00 +11°C° 1.3 mm 7 m/S 743 mmHg 95%
    15:00 +12°C° 0.2 mm 7 m/S 742 mmHg 94%
    16:00 +12°C° 0.2 mm 7 m/S 742 mmHg 93%
    17:00 +14°C° 0.2 mm 7 m/S 742 mmHg 92%
    18:00 +14°C° 0.1 mm 7 m/S 741 mmHg 89%
    19:00 +14°C° 0.1 mm 7 m/S 741 mmHg 86%
    20:00 +15°C° 0.1 mm 7 m/S 741 mmHg 82%
    21:00 +15°C° 0 mm 7 m/S 741 mmHg 80%
    22:00 +15°C° 0 mm 7 m/S 741 mmHg 77%
    23:00 +15°C° 0 mm 7 m/S 742 mmHg 74%

    übermorgen, 31 Mai, Sonntag

    Zeit Temperatur Niederschläge Wind Luftdruck Luftfeuchtigkeit
    00:00 +14°C° 0 mm 7 m/S 742 mmHg 74%
    01:00 +14°C° 0 mm 7 m/S 742 mmHg 74%
    02:00 +12°C° 0 mm 7 m/S 742 mmHg 74%
    03:00 +12°C° 0 mm 7 m/S 742 mmHg 73%
    04:00 +12°C° 0 mm 7 m/S 742 mmHg 71%
    05:00 +11°C° 0 mm 7 m/S 742 mmHg 70%
    06:00 +12°C° 0 mm 7 m/S 742 mmHg 66%
    07:00 +14°C° 0 mm 7 m/S 743 mmHg 62%
    08:00 +14°C° 0 mm 7 m/S 743 mmHg 58%
    09:00 +15°C° 0 mm 7 m/S 744 mmHg 55%
    10:00 +17°C° 0 mm 7 m/S 744 mmHg 52%
    11:00 +18°C° 0 mm 7 m/S 744 mmHg 49%
    12:00 +18°C° 0 mm 7 m/S 745 mmHg 47%
    13:00 +20°C° 0 mm 7 m/S 745 mmHg 46%
    14:00 +20°C° 0 mm 6 m/S 745 mmHg 44%
    15:00 +19°C° 0 mm 6 m/S 745 mmHg 47%
    16:00 +19°C° 0 mm 5 m/S 746 mmHg 50%
    17:00 +17°C° 0 mm 5 m/S 746 mmHg 53%
    18:00 +15°C° 0 mm 4 m/S 746 mmHg 58%
    19:00 +14°C° 0 mm 4 m/S 747 mmHg 63%
    20:00 +12°C° 0 mm 3 m/S 747 mmHg 68%
    21:00 +11°C° 0 mm 3 m/S 748 mmHg 67%
    22:00 +10°C° 0 mm 3 m/S 748 mmHg 66%
    23:00 +9°C° 0 mm 3 m/S 749 mmHg 65%

    1 Juni, Montag

    Zeit Temperatur Niederschläge Wind Luftdruck Luftfeuchtigkeit
    00:00 +9°C° 0 mm 3 m/S 749 mmHg 67%
    01:00 +8°C° 0 mm 3 m/S 749 mmHg 69%
    02:00 +7°C° 0 mm 3 m/S 749 mmHg 71%
    03:00 +7°C° 0 mm 3 m/S 749 mmHg 72%
    04:00 +7°C° 0 mm 3 m/S 749 mmHg 72%
    05:00 +5°C° 0 mm 3 m/S 749 mmHg 73%
    06:00 +8°C° 0 mm 3 m/S 750 mmHg 66%
    07:00 +8°C° 0 mm 4 m/S 750 mmHg 59%
    08:00 +11°C° 0 mm 4 m/S 750 mmHg 51%
    09:00 +12°C° 0 mm 4 m/S 750 mmHg 49%
    10:00 +13°C° 0 mm 4 m/S 750 mmHg 46%
    11:00 +13°C° 0 mm 4 m/S 750 mmHg 44%
    12:00 +14°C° 0 mm 4 m/S 749 mmHg 42%
    13:00 +15°C° 0 mm 4 m/S 749 mmHg 41%
    14:00 +15°C° 0 mm 4 m/S 749 mmHg 40%
    15:00 +15°C° 0 mm 4 m/S 749 mmHg 42%
    16:00 +16°C° 0 mm 3 m/S 749 mmHg 45%
    17:00 +14°C° 0 mm 3 m/S 749 mmHg 47%
    18:00 +14°C° 0 mm 2 m/S 749 mmHg 53%
    19:00 +13°C° 0 mm 2 m/S 749 mmHg 58%
    20:00 +10°C° 0 mm 2 m/S 749 mmHg 64%
    21:00 +10°C° 0 mm 1 m/S 749 mmHg 68%
    22:00 +8°C° 0 mm 1 m/S 749 mmHg 73%
    23:00 +7°C° 0 mm 1 m/S 749 mmHg 77%

    2 Juni, Dienstag

    Zeit Temperatur Niederschläge Wind Luftdruck Luftfeuchtigkeit
    00:00 +6°C° 0 mm 1 m/S 749 mmHg 79%
    01:00 +6°C° 0 mm 1 m/S 749 mmHg 82%
    02:00 +4°C° 0 mm 0 m/S 749 mmHg 84%
    03:00 +6°C° 0 mm 1 m/S 749 mmHg 81%
    04:00 +7°C° 0 mm 1 m/S 749 mmHg 78%
    05:00 +8°C° 0 mm 1 m/S 749 mmHg 76%
    06:00 +10°C° 0 mm 1 m/S 749 mmHg 68%
    07:00 +12°C° 0 mm 1 m/S 749 mmHg 60%
    08:00 +14°C° 0 mm 2 m/S 749 mmHg 51%
    09:00 +14°C° 0 mm 2 m/S 749 mmHg 50%
    10:00 +14°C° 0 mm 2 m/S 749 mmHg 49%
    11:00 +15°C° 0 mm 2 m/S 749 mmHg 47%
    12:00 +15°C° 0 mm 2 m/S 748 mmHg 46%
    13:00 +15°C° 0 mm 2 m/S 748 mmHg 45%
    14:00 +16°C° 0 mm 2 m/S 748 mmHg 45%
    15:00 +16°C° 0 mm 2 m/S 748 mmHg 45%
    16:00 +16°C° 0 mm 2 m/S 747 mmHg 46%
    17:00 +16°C° 0 mm 2 m/S 747 mmHg 47%
    18:00 +14°C° 0 mm 1 m/S 747 mmHg 54%
    19:00 +12°C° 0 mm 1 m/S 747 mmHg 62%
    20:00 +9°C° 0 mm 0 m/S 747 mmHg 69%
    21:00 +9°C° 0 mm 0 m/S 747 mmHg 69%
    22:00 +9°C° 0 mm 1 m/S 747 mmHg 70%
    23:00 +8°C° 0 mm 1 m/S 747 mmHg 70%

    3 Juni, Mittwoch

    Zeit Temperatur Niederschläge Wind Luftdruck Luftfeuchtigkeit
    00:00 +8°C° 0 mm 1 m/S 747 mmHg 70%
    01:00 +9°C° 0 mm 1 m/S 746 mmHg 69%
    02:00 +9°C° 0 mm 1 m/S 746 mmHg 69%
    03:00 +9°C° 0 mm 1 m/S 746 mmHg 71%
    04:00 +9°C° 0 mm 1 m/S 746 mmHg 72%
    05:00 +10°C° 0 mm 1 m/S 746 mmHg 74%
    06:00 +11°C° 0 mm 1 m/S 746 mmHg 70%
    07:00 +13°C° 0 mm 1 m/S 745 mmHg 65%
    08:00 +14°C° 0 mm 1 m/S 745 mmHg 61%
    09:00 +15°C° 0.1 mm 1 m/S 745 mmHg 57%
    10:00 +18°C° 0.1 mm 1 m/S 745 mmHg 53%
    11:00 +19°C° 0.1 mm 1 m/S 745 mmHg 50%
    12:00 +18°C° 0.1 mm 2 m/S 745 mmHg 51%
    13:00 +18°C° 0.1 mm 2 m/S 744 mmHg 53%
    14:00 +18°C° 0.1 mm 2 m/S 744 mmHg 55%
    15:00 +17°C° 0.2 mm 2 m/S 744 mmHg 59%
    16:00 +17°C° 0.2 mm 2 m/S 743 mmHg 63%
    17:00 +17°C° 0.2 mm 2 m/S 743 mmHg 66%
    18:00 +15°C° 0.1 mm 2 m/S 743 mmHg 74%
    19:00 +14°C° 0.1 mm 2 m/S 743 mmHg 82%
    20:00 +12°C° 0.1 mm 2 m/S 742 mmHg 90%
    21:00 +12°C° 0 mm 2 m/S 743 mmHg 90%
    22:00 +12°C° 0 mm 2 m/S 743 mmHg 90%
    23:00 +10°C° 0 mm 2 m/S 743 mmHg 90%
    Mehr zeigen